THY9704 OBBI-LTFM

Flight info

Callsign THY9704
Flight time 4h 10m
Altitude 36000
Route BHR B457 NARMI N697 HIL T540 ENABI/N0467F380 L550 NOVPA J981 DATOK L550 GENIV L324 TEZAK DCT SAFTA DCT TOMBI UM855 LEMDA UA16 KFK UM855 SISPI
Aircraft B703/M-SDFGHRWY/C

Departure

Time 2026-05-09 03:21
Airport Bahrain International Airport (OBBI)

Arrival

Time 2026-05-09 07:31
Airport İstanbul Airport (LTFM)
Time Latitude Longitude Altitude Speed Heading
2026-05-09 02:55 26.26796 50.63291 20 ft 0 kts 116°
2026-05-09 03:11 26.26793 50.63297 20 ft 6 kts 116°
2026-05-09 03:11 26.26751 50.63380 20 ft 16 kts 122°
2026-05-09 03:12 26.26710 50.63450 20 ft 0 kts 123°
2026-05-09 03:13 26.26696 50.63472 23 ft 11 kts 123°
2026-05-09 03:13 26.26653 50.63546 20 ft 11 kts 123°
2026-05-09 03:13 26.26610 50.63619 20 ft 11 kts 123°
2026-05-09 03:14 26.26567 50.63692 20 ft 11 kts 123°
2026-05-09 03:14 26.26521 50.63770 22 ft 13 kts 122°
2026-05-09 03:14 26.26471 50.63858 20 ft 14 kts 120°
2026-05-09 03:14 26.26455 50.63889 20 ft 0 kts 121°
2026-05-09 03:15 26.26451 50.63897 20 ft 4 kts 121°
2026-05-09 03:15 26.26428 50.63939 20 ft 8 kts 117°
2026-05-09 03:16 26.26423 50.63981 20 ft 0 kts 68°
2026-05-09 03:16 26.26425 50.63985 20 ft 2 kts 68°
2026-05-09 03:16 26.26440 50.64013 20 ft 6 kts 50°
2026-05-09 03:16 26.26461 50.64072 20 ft 11 kts 95°
2026-05-09 03:17 26.26420 50.64158 22 ft 15 kts 123°
2026-05-09 03:17 26.26354 50.64272 20 ft 20 kts 123°
2026-05-09 03:17 26.26269 50.64416 20 ft 24 kts 123°
2026-05-09 03:17 26.26173 50.64586 20 ft 26 kts 121°
2026-05-09 03:18 26.26080 50.64757 20 ft 25 kts 121°
2026-05-09 03:18 26.25992 50.64920 20 ft 17 kts 105°
2026-05-09 03:18 26.26011 50.64948 20 ft 4 kts 27°
2026-05-09 03:18 26.26050 50.64971 22 ft 8 kts 27°
2026-05-09 03:19 26.26113 50.65000 22 ft 11 kts
2026-05-09 03:19 26.26179 50.64937 22 ft 16 kts 300°
2026-05-09 03:19 26.26248 50.64817 20 ft 21 kts 303°
2026-05-09 03:19 26.26332 50.64667 21 ft 25 kts 302°
2026-05-09 03:20 26.26518 50.64352 21 ft 77 kts 304°
2026-05-09 03:20 26.26888 50.63691 19 ft 122 kts 303°
2026-05-09 03:20 26.27414 50.62782 22 ft 155 kts 304°
2026-05-09 03:20 26.28029 50.61733 252 ft 163 kts 302°
2026-05-09 03:21 26.28633 50.60697 789 ft 157 kts 301°
2026-05-09 03:21 26.29191 50.59595 1224 ft 164 kts 300°
2026-05-09 03:21 26.29705 50.58499 1871 ft 158 kts 302°
2026-05-09 03:21 26.30293 50.57449 2347 ft 162 kts 307°
2026-05-09 03:22 26.30989 50.56389 2688 ft 177 kts 305°
2026-05-09 03:22 26.31607 50.55214 3287 ft 174 kts 301°
2026-05-09 03:22 26.32178 50.53987 3672 ft 186 kts 301°
2026-05-09 03:22 26.32811 50.52647 3899 ft 205 kts 301°
2026-05-09 03:23 26.33515 50.51176 4229 ft 223 kts 301°
2026-05-09 03:23 26.34237 50.49670 5078 ft 213 kts 301°
2026-05-09 03:23 26.34915 50.48250 5970 ft 206 kts 300°
2026-05-09 03:23 26.35595 50.46786 6383 ft 219 kts 299°
2026-05-09 03:24 26.36280 50.45225 6824 ft 228 kts 291°
2026-05-09 03:24 26.36499 50.43432 7273 ft 242 kts 267°
2026-05-09 03:24 26.36002 50.41615 7839 ft 251 kts 244°
2026-05-09 03:24 26.34890 50.40121 8418 ft 258 kts 225°
2026-05-09 03:25 26.33534 50.38806 9054 ft 258 kts 226°
2026-05-09 03:25 26.32270 50.37385 9680 ft 257 kts 232°
2026-05-09 03:25 26.31238 50.35772 10262 ft 255 kts 244°
2026-05-09 03:25 26.30528 50.33972 10804 ft 254 kts 256°
2026-05-09 03:26 26.30382 50.32004 11238 ft 259 kts 277°
2026-05-09 03:26 26.30906 50.30061 11662 ft 266 kts 292°
2026-05-09 03:26 26.31695 50.28170 12141 ft 272 kts 293°
2026-05-09 03:26 26.32457 50.26222 12663 ft 277 kts 290°
2026-05-09 03:27 26.33161 50.24208 13204 ft 281 kts 288°
2026-05-09 03:27 26.33875 50.22162 13773 ft 284 kts 289°
2026-05-09 03:27 26.34621 50.20100 14255 ft 289 kts 289°
2026-05-09 03:27 26.35388 50.17989 14636 ft 298 kts 289°
2026-05-09 03:28 26.36168 50.15821 15038 ft 305 kts 289°
2026-05-09 03:28 26.36962 50.13606 15470 ft 311 kts 289°
2026-05-09 03:28 26.37773 50.11350 15940 ft 315 kts 289°
2026-05-09 03:28 26.38584 50.09094 16417 ft 319 kts 289°
2026-05-09 03:29 26.39413 50.06788 16916 ft 322 kts 289°
2026-05-09 03:29 26.40249 50.04457 17441 ft 325 kts 289°
2026-05-09 03:29 26.41089 50.02113 17962 ft 327 kts 289°
2026-05-09 03:29 26.41935 49.99751 18473 ft 328 kts 288°
2026-05-09 03:30 26.42784 49.97381 18923 ft 329 kts 288°
2026-05-09 03:30 26.43636 49.95001 19374 ft 331 kts 288°
2026-05-09 03:30 26.44488 49.92618 19821 ft 332 kts 287°
2026-05-09 03:30 26.45344 49.90221 20272 ft 332 kts 287°
2026-05-09 03:31 26.46201 49.87823 20702 ft 333 kts 287°
2026-05-09 03:31 26.47060 49.85416 21139 ft 334 kts 286°
2026-05-09 03:31 26.47920 49.83006 21577 ft 335 kts 286°
2026-05-09 03:31 26.48781 49.80590 21991 ft 335 kts 285°
2026-05-09 03:32 26.49643 49.78162 22340 ft 338 kts 284°
2026-05-09 03:32 26.50322 49.75659 22630 ft 339 kts 279°
2026-05-09 03:32 26.50954 49.73109 22940 ft 342 kts 279°
2026-05-09 03:32 26.51602 49.70539 23262 ft 346 kts 279°
2026-05-09 03:33 26.52263 49.67947 23580 ft 348 kts 279°
2026-05-09 03:33 26.52926 49.65335 23866 ft 350 kts 279°
2026-05-09 03:33 26.53579 49.62739 24153 ft 352 kts 279°
2026-05-09 03:33 26.54244 49.60099 24446 ft 353 kts 279°
2026-05-09 03:34 26.54911 49.57454 24752 ft 354 kts 279°
2026-05-09 03:34 26.55580 49.54802 25062 ft 355 kts 278°
2026-05-09 03:34 26.56250 49.52140 25372 ft 356 kts 278°
2026-05-09 03:34 26.56920 49.49474 25677 ft 356 kts 278°
2026-05-09 03:35 26.57590 49.46807 25996 ft 357 kts 278°
2026-05-09 03:35 26.58260 49.44137 26311 ft 357 kts 278°
2026-05-09 03:35 26.58930 49.41467 26625 ft 357 kts 278°
2026-05-09 03:35 26.59599 49.38798 26936 ft 357 kts 277°
2026-05-09 03:36 26.60269 49.36120 27242 ft 357 kts 277°
2026-05-09 03:36 26.60937 49.33451 27537 ft 357 kts 277°
2026-05-09 03:36 26.61605 49.30777 27836 ft 357 kts 277°
2026-05-09 03:36 26.62275 49.28095 28121 ft 357 kts 277°
2026-05-09 03:37 26.62942 49.25418 28403 ft 357 kts 277°
2026-05-09 03:37 26.63608 49.22747 28686 ft 357 kts 276°
2026-05-09 03:37 26.64267 49.20104 28963 ft 357 kts 276°
2026-05-09 03:37 26.64933 49.17425 29241 ft 357 kts 276°
2026-05-09 03:38 26.65600 49.14741 29505 ft 358 kts 276°
2026-05-09 03:38 26.66265 49.12066 29766 ft 358 kts 276°
2026-05-09 03:38 26.66931 49.09383 30012 ft 358 kts 276°
2026-05-09 03:38 26.67595 49.06702 30224 ft 358 kts 276°
2026-05-09 03:39 26.68260 49.04021 30441 ft 358 kts 276°
2026-05-09 03:39 26.68709 49.02209 30585 ft 357 kts 276°
2026-05-09 03:39 26.69364 48.99561 30796 ft 357 kts 276°
2026-05-09 03:39 26.70026 48.96884 31012 ft 357 kts 276°
2026-05-09 03:40 26.70685 48.94214 31236 ft 356 kts 276°
2026-05-09 03:40 26.71341 48.91554 31444 ft 355 kts 276°
2026-05-09 03:40 26.71999 48.88888 31655 ft 354 kts 276°
2026-05-09 03:40 26.72654 48.86228 31869 ft 354 kts 276°
2026-05-09 03:41 26.73307 48.83574 32083 ft 353 kts 276°
2026-05-09 03:41 26.73956 48.80933 32289 ft 352 kts 276°
2026-05-09 03:41 26.74604 48.78296 32496 ft 351 kts 276°
2026-05-09 03:41 26.75250 48.75666 32699 ft 350 kts 276°
2026-05-09 03:42 26.75893 48.73042 32892 ft 349 kts 276°
2026-05-09 03:42 26.76471 48.70416 33068 ft 342 kts 268°
2026-05-09 03:42 26.76537 48.67835 33234 ft 333 kts 261°
2026-05-09 03:42 26.76437 48.65252 33419 ft 332 kts 260°
2026-05-09 03:43 26.76342 48.62670 33600 ft 332 kts 261°
2026-05-09 03:43 26.76284 48.60095 33769 ft 331 kts 262°
2026-05-09 03:43 26.76229 48.57519 33943 ft 331 kts 261°
2026-05-09 03:43 26.76160 48.54948 34087 ft 330 kts 261°
2026-05-09 03:44 26.76086 48.52383 34217 ft 330 kts 261°
2026-05-09 03:44 26.76016 48.49823 34339 ft 330 kts 261°
2026-05-09 03:44 26.75949 48.47257 34453 ft 330 kts 261°
2026-05-09 03:44 26.75880 48.44696 34554 ft 330 kts 261°
2026-05-09 03:45 26.75809 48.42126 34663 ft 330 kts 261°
2026-05-09 03:45 26.75738 48.39562 34764 ft 330 kts 261°
2026-05-09 03:45 26.75595 48.34427 34953 ft 330 kts 261°
2026-05-09 03:46 26.75453 48.29285 35136 ft 331 kts 261°
2026-05-09 03:46 26.75308 48.24132 35316 ft 331 kts 261°
2026-05-09 03:47 26.75162 48.18976 35493 ft 332 kts 261°
2026-05-09 03:47 26.75013 48.13804 35657 ft 332 kts 261°
2026-05-09 03:48 26.74863 48.08666 35817 ft 333 kts 261°
2026-05-09 03:48 26.74711 48.03488 35979 ft 333 kts 261°
2026-05-09 03:49 26.74554 47.98289 36031 ft 336 kts 261°
2026-05-09 03:49 26.74395 47.93024 36043 ft 341 kts 261°
2026-05-09 03:50 26.74270 47.87676 36032 ft 349 kts 266°
2026-05-09 03:50 26.74562 47.82214 36039 ft 354 kts 265°
2026-05-09 03:51 26.74835 47.76670 36044 ft 359 kts 265°
2026-05-09 03:51 26.75120 47.71048 36048 ft 364 kts 265°
2026-05-09 03:52 26.75402 47.65362 36045 ft 369 kts 265°
2026-05-09 03:52 26.75685 47.59640 36053 ft 373 kts 265°
2026-05-09 03:53 26.75970 47.53807 36057 ft 378 kts 266°
2026-05-09 03:53 26.76257 47.47898 36062 ft 382 kts 266°
2026-05-09 03:54 26.76545 47.41929 36064 ft 387 kts 266°
2026-05-09 03:54 26.76993 47.35879 36060 ft 396 kts 271°
2026-05-09 03:55 26.77979 47.29769 36061 ft 401 kts 272°
2026-05-09 03:55 26.78917 47.23590 36064 ft 404 kts 272°
2026-05-09 03:56 26.79878 47.17365 36065 ft 408 kts 272°
2026-05-09 03:56 26.80840 47.11090 36066 ft 410 kts 272°
2026-05-09 03:57 26.81805 47.04769 36066 ft 413 kts 272°
2026-05-09 03:57 26.82775 46.98412 36074 ft 415 kts 272°
2026-05-09 03:58 26.83744 46.92026 36071 ft 417 kts 272°
2026-05-09 03:58 26.84717 46.85605 36070 ft 419 kts 272°
2026-05-09 03:59 26.85687 46.79171 36073 ft 421 kts 272°
2026-05-09 03:59 26.86656 46.72734 36074 ft 422 kts 272°
2026-05-09 04:00 26.87629 46.66245 36070 ft 423 kts 272°
2026-05-09 04:00 26.88604 46.59724 36070 ft 425 kts 272°
2026-05-09 04:01 26.89576 46.53194 36072 ft 426 kts 272°
2026-05-09 04:01 26.90550 46.46642 36076 ft 427 kts 273°
2026-05-09 04:02 26.91523 46.40070 36078 ft 428 kts 273°
2026-05-09 04:02 26.92498 46.33487 36076 ft 429 kts 273°
2026-05-09 04:03 26.93477 46.26882 36077 ft 430 kts 273°
2026-05-09 04:03 26.94453 46.20257 36082 ft 431 kts 273°
2026-05-09 04:04 26.95427 46.13626 36078 ft 432 kts 273°
2026-05-09 04:04 26.96401 46.06980 36079 ft 432 kts 273°
2026-05-09 04:05 26.97367 46.00361 36078 ft 433 kts 273°
2026-05-09 04:05 26.98338 45.93684 36082 ft 434 kts 273°
2026-05-09 04:06 26.99308 45.86995 36077 ft 435 kts 273°
2026-05-09 04:06 27.00276 45.80295 36077 ft 436 kts 273°
2026-05-09 04:07 27.01243 45.73577 36079 ft 436 kts 273°
2026-05-09 04:07 27.02207 45.66859 36074 ft 437 kts 273°
2026-05-09 04:08 27.03165 45.60160 36070 ft 437 kts 273°
2026-05-09 04:08 27.04125 45.53424 36082 ft 438 kts 273°
2026-05-09 04:09 27.05087 45.46662 36079 ft 438 kts 273°
2026-05-09 04:09 27.05879 45.39901 36080 ft 438 kts 272°
2026-05-09 04:10 27.06688 45.33122 36082 ft 438 kts 272°
2026-05-09 04:10 27.07418 45.26338 36080 ft 438 kts 272°
2026-05-09 04:11 27.08186 45.19545 36069 ft 439 kts 272°
2026-05-09 04:11 27.08932 45.12751 36080 ft 439 kts 272°
2026-05-09 04:12 27.09684 45.05937 36080 ft 440 kts 272°
2026-05-09 04:12 27.10426 44.99170 36074 ft 440 kts 272°
2026-05-09 04:13 27.11172 44.92336 36069 ft 440 kts 272°
2026-05-09 04:13 27.11913 44.85513 36074 ft 441 kts 272°
2026-05-09 04:14 27.12652 44.78680 36065 ft 441 kts 272°
2026-05-09 04:14 27.13389 44.71833 36068 ft 441 kts 272°
2026-05-09 04:15 27.14124 44.64986 36065 ft 442 kts 272°
2026-05-09 04:15 27.14851 44.58180 36065 ft 442 kts 272°
2026-05-09 04:16 27.15597 44.51321 36066 ft 442 kts 273°
2026-05-09 04:16 27.16299 44.44463 36063 ft 443 kts 272°
2026-05-09 04:17 27.17033 44.37586 36065 ft 443 kts 273°
2026-05-09 04:17 27.17746 44.30705 36069 ft 443 kts 272°
2026-05-09 04:18 27.18457 44.23823 36065 ft 443 kts 272°
2026-05-09 04:18 27.19166 44.16943 36067 ft 443 kts 272°
2026-05-09 04:19 27.19870 44.10062 36067 ft 444 kts 272°
2026-05-09 04:19 27.20574 44.03169 36071 ft 444 kts 272°
2026-05-09 04:20 27.21271 43.96285 36068 ft 444 kts 272°
2026-05-09 04:20 27.21964 43.89423 36069 ft 444 kts 272°
2026-05-09 04:21 27.22657 43.82526 36068 ft 444 kts 272°
2026-05-09 04:22 27.23690 43.72173 36073 ft 445 kts 272°
2026-05-09 04:22 27.24376 43.65266 36070 ft 445 kts 272°
2026-05-09 04:23 27.25061 43.58351 36076 ft 445 kts 272°
2026-05-09 04:23 27.25742 43.51437 36075 ft 445 kts 272°
2026-05-09 04:24 27.26420 43.44512 36079 ft 445 kts 272°
2026-05-09 04:24 27.27095 43.37590 36074 ft 445 kts 272°
2026-05-09 04:25 27.27653 43.31838 36071 ft 446 kts 272°
2026-05-09 04:25 27.28322 43.24908 36081 ft 446 kts 272°
2026-05-09 04:26 27.29096 43.16847 36081 ft 446 kts 272°
2026-05-09 04:26 27.29650 43.11044 36082 ft 446 kts 272°
2026-05-09 04:27 27.30309 43.04104 36089 ft 446 kts 272°
2026-05-09 04:27 27.30967 42.97155 36088 ft 447 kts 272°
2026-05-09 04:28 27.31619 42.90211 36087 ft 447 kts 272°
2026-05-09 04:28 27.32265 42.83305 36092 ft 447 kts 272°
2026-05-09 04:29 27.32912 42.76348 36089 ft 447 kts 272°
2026-05-09 04:29 27.33556 42.69396 36095 ft 447 kts 272°
2026-05-09 04:30 27.34195 42.62441 36097 ft 447 kts 272°
2026-05-09 04:30 27.34833 42.55479 36097 ft 447 kts 272°
2026-05-09 04:31 27.35466 42.48514 36101 ft 447 kts 272°
2026-05-09 04:31 27.36097 42.41541 36098 ft 448 kts 272°
2026-05-09 04:32 27.36723 42.34570 36102 ft 448 kts 272°
2026-05-09 04:32 27.37347 42.27595 36103 ft 448 kts 271°
2026-05-09 04:33 27.37963 42.20664 36110 ft 448 kts 271°
2026-05-09 04:33 27.38581 42.13681 36108 ft 449 kts 271°
2026-05-09 04:34 27.39194 42.06690 36112 ft 449 kts 271°
2026-05-09 04:34 27.39806 41.99700 36120 ft 449 kts 271°
2026-05-09 04:35 27.40413 41.92705 36123 ft 449 kts 271°
2026-05-09 04:35 27.41018 41.85706 36134 ft 449 kts 271°
2026-05-09 04:36 27.41618 41.78704 36142 ft 449 kts 271°
2026-05-09 04:36 27.42220 41.71702 36137 ft 450 kts 272°
2026-05-09 04:36 27.42871 41.68247 36140 ft 457 kts 284°
2026-05-09 04:37 27.44211 41.64960 36151 ft 466 kts 294°
2026-05-09 04:37 27.47821 41.58820 36142 ft 471 kts 297°
2026-05-09 04:38 27.51224 41.52621 36131 ft 468 kts 294°
2026-05-09 04:38 27.54677 41.46387 36121 ft 470 kts 296°
2026-05-09 04:39 27.58156 41.40152 36103 ft 469 kts 295°
2026-05-09 04:39 27.61599 41.33887 36103 ft 470 kts 296°
2026-05-09 04:40 27.65071 41.27643 36096 ft 470 kts 295°
2026-05-09 04:40 27.68513 41.21381 36087 ft 469 kts 295°
2026-05-09 04:41 27.71966 41.15130 36090 ft 469 kts 296°
2026-05-09 04:41 27.75406 41.08869 36093 ft 469 kts 295°
2026-05-09 04:42 27.78828 41.02647 36088 ft 469 kts 296°
2026-05-09 04:42 27.82264 40.96383 36093 ft 469 kts 295°
2026-05-09 04:43 27.85698 40.90115 36094 ft 469 kts 296°
2026-05-09 04:43 27.89134 40.83838 36097 ft 469 kts 296°
2026-05-09 04:44 27.92563 40.77560 36099 ft 470 kts 296°
2026-05-09 04:44 27.95998 40.71265 36100 ft 470 kts 296°
2026-05-09 04:45 27.99432 40.64959 36105 ft 471 kts 296°
2026-05-09 04:45 28.02845 40.58685 36108 ft 471 kts 296°
2026-05-09 04:46 28.06278 40.52363 36109 ft 472 kts 296°
2026-05-09 04:46 28.09714 40.46027 36113 ft 472 kts 296°
2026-05-09 04:47 28.13151 40.39680 36114 ft 472 kts 296°
2026-05-09 04:47 28.16589 40.33323 36105 ft 473 kts 296°
2026-05-09 04:48 28.20027 40.26954 36113 ft 473 kts 296°
2026-05-09 04:48 28.23464 40.20579 36118 ft 474 kts 296°
2026-05-09 04:49 28.26901 40.14192 36120 ft 474 kts 296°
2026-05-09 04:49 28.30361 40.07865 36115 ft 478 kts 301°
2026-05-09 04:50 28.34549 40.01961 36118 ft 481 kts 305°
2026-05-09 04:50 28.38764 39.96076 36124 ft 480 kts 303°
2026-05-09 04:51 28.42940 39.90151 36120 ft 481 kts 304°
2026-05-09 04:51 28.47157 39.84244 36121 ft 481 kts 304°
2026-05-09 04:52 28.51346 39.78304 36127 ft 481 kts 304°
2026-05-09 04:52 28.55550 39.72378 36124 ft 481 kts 304°
2026-05-09 04:53 28.59743 39.66430 36123 ft 481 kts 304°
2026-05-09 04:53 28.63932 39.60498 36120 ft 481 kts 304°
2026-05-09 04:54 28.68116 39.54554 36123 ft 481 kts 304°
2026-05-09 04:54 28.72299 39.48608 36124 ft 481 kts 304°
2026-05-09 04:55 28.76478 39.42658 36128 ft 481 kts 305°
2026-05-09 04:55 28.80654 39.36704 36119 ft 481 kts 305°
2026-05-09 04:56 28.84799 39.30786 36117 ft 481 kts 305°
2026-05-09 04:56 28.88974 39.24816 36121 ft 481 kts 305°
2026-05-09 04:57 28.93145 39.18843 36120 ft 481 kts 305°
2026-05-09 04:57 28.97311 39.12869 36113 ft 481 kts 305°
2026-05-09 04:58 29.01478 39.06885 36113 ft 481 kts 305°
2026-05-09 04:58 29.05642 39.00897 36112 ft 481 kts 305°
2026-05-09 04:59 29.09523 38.94704 36114 ft 475 kts 292°
2026-05-09 04:59 29.10673 38.91187 36118 ft 470 kts 281°
2026-05-09 04:59 29.11121 38.87561 36107 ft 466 kts 269°
2026-05-09 05:00 29.11000 38.80160 36105 ft 466 kts 268°
2026-05-09 05:00 29.11012 38.72748 36105 ft 467 kts 268°
2026-05-09 05:01 29.10955 38.65328 36104 ft 467 kts 268°
2026-05-09 05:01 29.10914 38.57891 36101 ft 467 kts 268°
2026-05-09 05:02 29.10871 38.50450 36099 ft 468 kts 268°
2026-05-09 05:02 29.10815 38.43007 36098 ft 468 kts 268°
2026-05-09 05:03 29.10764 38.35561 36096 ft 469 kts 268°
2026-05-09 05:03 29.10700 38.28105 36095 ft 469 kts 268°
2026-05-09 05:04 29.10637 38.20644 36093 ft 470 kts 268°
2026-05-09 05:04 29.10567 38.13169 36085 ft 470 kts 268°
2026-05-09 05:05 29.10495 38.05695 36083 ft 470 kts 268°
2026-05-09 05:05 29.10418 37.98208 36074 ft 471 kts 269°
2026-05-09 05:06 29.10337 37.90773 36072 ft 471 kts 269°
2026-05-09 05:06 29.10251 37.83277 36075 ft 471 kts 269°
2026-05-09 05:07 29.10162 37.75786 36078 ft 471 kts 269°
2026-05-09 05:07 29.10068 37.68284 36074 ft 471 kts 269°
2026-05-09 05:08 29.09970 37.60792 36075 ft 471 kts 269°
2026-05-09 05:08 29.09867 37.53302 36082 ft 471 kts 269°
2026-05-09 05:09 29.09785 37.45855 36077 ft 471 kts 270°
2026-05-09 05:09 29.09753 37.38347 36082 ft 471 kts 270°
2026-05-09 05:10 29.09679 37.30844 36075 ft 472 kts 270°
2026-05-09 05:10 29.09623 37.23334 36070 ft 472 kts 270°
2026-05-09 05:11 29.09551 37.15832 36065 ft 472 kts 270°
2026-05-09 05:11 29.09481 37.08379 36061 ft 472 kts 270°
2026-05-09 05:12 29.09405 37.00879 36054 ft 472 kts 270°
2026-05-09 05:12 29.09324 36.93375 36050 ft 472 kts 270°
2026-05-09 05:13 29.09254 36.87084 36044 ft 472 kts 270°
2026-05-09 05:13 29.09166 36.79629 36042 ft 472 kts 270°
2026-05-09 05:14 29.09074 36.72122 36032 ft 472 kts 270°
2026-05-09 05:14 29.08978 36.64617 36026 ft 472 kts 270°
2026-05-09 05:15 29.08877 36.57109 36023 ft 472 kts 270°
2026-05-09 05:15 29.08773 36.49604 36025 ft 472 kts 270°
2026-05-09 05:16 29.08611 36.42102 36021 ft 472 kts 269°
2026-05-09 05:16 29.08378 36.34606 36025 ft 472 kts 270°
2026-05-09 05:17 29.08193 36.27106 36022 ft 472 kts 269°
2026-05-09 05:17 29.08081 36.23362 35734 ft 470 kts 269°
2026-05-09 05:17 29.07970 36.19639 35859 ft 466 kts 269°
2026-05-09 05:17 29.07868 36.15954 35981 ft 463 kts 269°
2026-05-09 05:18 29.07766 36.12275 36022 ft 462 kts 269°
2026-05-09 05:18 29.07549 36.04943 36022 ft 461 kts 268°
2026-05-09 05:19 29.07333 35.97623 36024 ft 461 kts 268°
2026-05-09 05:19 29.07110 35.90294 36031 ft 461 kts 268°
2026-05-09 05:20 29.06886 35.83020 36032 ft 461 kts 268°
2026-05-09 05:20 29.06657 35.75700 36031 ft 461 kts 268°
2026-05-09 05:21 29.06424 35.68390 36030 ft 460 kts 268°
2026-05-09 05:21 29.06187 35.61073 36028 ft 460 kts 268°
2026-05-09 05:22 29.05945 35.53752 36029 ft 460 kts 268°
2026-05-09 05:22 29.05700 35.46437 36023 ft 461 kts 268°
2026-05-09 05:23 29.05450 35.39118 36019 ft 461 kts 268°
2026-05-09 05:23 29.05197 35.31789 36020 ft 462 kts 268°
2026-05-09 05:24 29.04940 35.24499 36007 ft 462 kts 268°
2026-05-09 05:24 29.04678 35.17159 36002 ft 462 kts 268°
2026-05-09 05:25 29.04413 35.09818 36000 ft 463 kts 268°
2026-05-09 05:25 29.04006 34.98802 35989 ft 463 kts 268°
2026-05-09 05:26 29.03729 34.91445 35985 ft 463 kts 268°
2026-05-09 05:26 29.03466 34.84096 35979 ft 463 kts 270°
2026-05-09 05:27 29.03371 34.76741 35989 ft 463 kts 268°
2026-05-09 05:27 29.03523 34.73071 35998 ft 462 kts 279°
2026-05-09 05:27 29.04363 34.69524 36007 ft 464 kts 291°
2026-05-09 05:28 29.05870 34.66265 36012 ft 467 kts 303°
2026-05-09 05:28 29.07987 34.63432 36021 ft 471 kts 314°
2026-05-09 05:28 29.13367 34.59165 36023 ft 476 kts 326°
2026-05-09 05:29 29.19050 34.55265 36036 ft 475 kts 322°
2026-05-09 05:29 29.24450 34.50916 36044 ft 476 kts 323°
2026-05-09 05:30 29.30027 34.46808 36063 ft 476 kts 323°
2026-05-09 05:30 29.35512 34.42557 36074 ft 476 kts 322°
2026-05-09 05:31 29.41041 34.38368 36077 ft 476 kts 323°
2026-05-09 05:31 29.46552 34.34146 36088 ft 476 kts 322°
2026-05-09 05:32 29.52070 34.29923 36095 ft 477 kts 322°
2026-05-09 05:32 29.57560 34.25720 36101 ft 477 kts 322°
2026-05-09 05:33 29.63230 34.21726 36100 ft 480 kts 328°
2026-05-09 05:33 29.69183 34.18188 36108 ft 480 kts 328°
2026-05-09 05:34 29.75069 34.14563 36108 ft 480 kts 328°
2026-05-09 05:34 29.80995 34.10971 36107 ft 481 kts 328°
2026-05-09 05:35 29.86903 34.07359 36107 ft 481 kts 328°
2026-05-09 05:35 29.92819 34.03744 36110 ft 481 kts 328°
2026-05-09 05:36 29.98729 34.00129 36110 ft 481 kts 328°
2026-05-09 05:36 30.04598 33.96530 36105 ft 481 kts 328°
2026-05-09 05:37 30.10504 33.92909 36106 ft 480 kts 328°
2026-05-09 05:37 30.16404 33.89281 36105 ft 480 kts 328°
2026-05-09 05:38 30.22309 33.85650 36105 ft 480 kts 328°
2026-05-09 05:38 30.28200 33.82019 36112 ft 480 kts 327°
2026-05-09 05:39 30.34087 33.78387 36114 ft 479 kts 327°
2026-05-09 05:39 30.39965 33.74755 36110 ft 479 kts 327°
2026-05-09 05:40 30.45847 33.71117 36113 ft 479 kts 327°
2026-05-09 05:40 30.51716 33.67480 36115 ft 478 kts 327°
2026-05-09 05:41 30.57550 33.63862 36116 ft 478 kts 327°
2026-05-09 05:41 30.63421 33.60214 36117 ft 478 kts 327°
2026-05-09 05:42 30.69281 33.56568 36116 ft 478 kts 327°
2026-05-09 05:42 30.75148 33.52914 36116 ft 478 kts 327°
2026-05-09 05:43 30.81019 33.49251 36113 ft 478 kts 327°
2026-05-09 05:43 30.86846 33.45611 36113 ft 478 kts 327°
2026-05-09 05:44 30.92738 33.41925 36112 ft 478 kts 327°
2026-05-09 05:44 30.98597 33.38255 36111 ft 478 kts 327°
2026-05-09 05:45 31.04445 33.34586 36107 ft 477 kts 327°
2026-05-09 05:45 31.10264 33.30931 36104 ft 477 kts 327°
2026-05-09 05:46 31.16098 33.27260 36106 ft 476 kts 327°
2026-05-09 05:46 31.21930 33.23586 36110 ft 476 kts 327°
2026-05-09 05:47 31.27764 33.19906 36105 ft 475 kts 327°
2026-05-09 05:47 31.33581 33.16233 36105 ft 475 kts 327°
2026-05-09 05:48 31.36638 33.14717 36107 ft 483 kts 338°
2026-05-09 05:48 31.39908 33.13970 36114 ft 491 kts 349°
2026-05-09 05:48 31.46789 33.13770 36106 ft 496 kts 354°
2026-05-09 05:49 31.53656 33.13451 36102 ft 492 kts 350°
2026-05-09 05:49 31.60505 33.13052 36104 ft 494 kts 353°
2026-05-09 05:50 31.67374 33.12763 36105 ft 493 kts 351°
2026-05-09 05:50 31.74223 33.12369 36106 ft 493 kts 352°
2026-05-09 05:51 31.77588 33.11851 36104 ft 484 kts 340°
2026-05-09 05:51 31.80724 33.10548 36104 ft 474 kts 328°
2026-05-09 05:51 31.83493 33.08530 36101 ft 465 kts 317°
2026-05-09 05:51 31.85844 33.05943 36103 ft 460 kts 309°
2026-05-09 05:52 31.90199 33.00420 36100 ft 460 kts 310°
2026-05-09 05:52 31.94604 32.94998 36106 ft 461 kts 310°
2026-05-09 05:53 31.98989 32.89500 36103 ft 460 kts 310°
2026-05-09 05:53 32.03392 32.84017 36101 ft 460 kts 310°
2026-05-09 05:54 32.07783 32.78521 36106 ft 460 kts 310°
2026-05-09 05:54 32.12172 32.73025 36100 ft 460 kts 310°
2026-05-09 05:55 32.16554 32.67531 36101 ft 459 kts 310°
2026-05-09 05:55 32.20929 32.62034 36107 ft 459 kts 310°
2026-05-09 05:56 32.25272 32.56571 36110 ft 459 kts 310°
2026-05-09 05:56 32.29634 32.51075 36110 ft 458 kts 310°
2026-05-09 05:57 32.33993 32.45575 36110 ft 458 kts 310°
2026-05-09 05:57 32.38345 32.40076 36107 ft 458 kts 310°
2026-05-09 05:58 32.42698 32.34566 36110 ft 458 kts 310°
2026-05-09 05:58 32.47046 32.29055 36113 ft 458 kts 310°
2026-05-09 05:59 32.51387 32.23545 36111 ft 458 kts 310°
2026-05-09 05:59 32.55729 32.18024 36111 ft 458 kts 310°
2026-05-09 06:00 32.60070 32.12497 36108 ft 458 kts 310°
2026-05-09 06:00 32.65054 32.07803 36113 ft 467 kts 330°
2026-05-09 06:01 32.70213 32.05725 36110 ft 474 kts 341°
2026-05-09 06:01 32.77622 32.03355 36115 ft 473 kts 338°
2026-05-09 06:02 32.82863 32.01341 36107 ft 473 kts 339°
2026-05-09 06:02 32.89216 31.99177 36118 ft 474 kts 339°
2026-05-09 06:03 32.95471 31.96897 36116 ft 474 kts 339°
2026-05-09 06:03 33.01802 31.94660 36111 ft 474 kts 339°
2026-05-09 06:04 33.08134 31.92388 36118 ft 474 kts 339°
2026-05-09 06:04 33.14459 31.90124 36117 ft 475 kts 339°
2026-05-09 06:05 33.20787 31.87857 36115 ft 475 kts 339°
2026-05-09 06:05 33.27109 31.85584 36118 ft 475 kts 339°
2026-05-09 06:06 33.33442 31.83309 36114 ft 475 kts 339°
2026-05-09 06:06 33.39762 31.81030 36117 ft 475 kts 339°
2026-05-09 06:07 33.46052 31.78762 36107 ft 474 kts 339°
2026-05-09 06:07 33.52376 31.76476 36115 ft 474 kts 339°
2026-05-09 06:08 33.58694 31.74189 36116 ft 474 kts 339°
2026-05-09 06:08 33.65007 31.71900 36114 ft 474 kts 339°
2026-05-09 06:09 33.71325 31.69606 36117 ft 474 kts 339°
2026-05-09 06:09 33.77639 31.67310 36124 ft 474 kts 339°
2026-05-09 06:10 33.83949 31.65011 36119 ft 474 kts 339°
2026-05-09 06:10 33.90266 31.62703 36122 ft 474 kts 339°
2026-05-09 06:11 33.96534 31.60412 36121 ft 474 kts 339°
2026-05-09 06:11 34.02855 31.58097 36121 ft 474 kts 339°
2026-05-09 06:12 34.09175 31.55779 36125 ft 473 kts 338°
2026-05-09 06:12 34.15477 31.53464 36122 ft 473 kts 338°
2026-05-09 06:13 34.21783 31.51143 36117 ft 473 kts 338°
2026-05-09 06:13 34.28083 31.48822 36121 ft 473 kts 338°
2026-05-09 06:14 34.34383 31.46496 36123 ft 473 kts 338°
2026-05-09 06:14 34.40683 31.44168 36124 ft 473 kts 338°
2026-05-09 06:15 34.46945 31.41849 36120 ft 473 kts 338°
2026-05-09 06:15 34.53241 31.39514 36119 ft 474 kts 338°
2026-05-09 06:16 34.59550 31.37171 36125 ft 474 kts 338°
2026-05-09 06:16 34.65856 31.34825 36122 ft 474 kts 338°
2026-05-09 06:17 34.72158 31.32476 36119 ft 474 kts 338°
2026-05-09 06:17 34.78467 31.30122 36117 ft 474 kts 338°
2026-05-09 06:18 34.84777 31.27763 36122 ft 474 kts 338°
2026-05-09 06:18 34.91085 31.25402 36121 ft 474 kts 338°
2026-05-09 06:19 34.97396 31.23035 36116 ft 474 kts 338°
2026-05-09 06:19 35.03710 31.20663 36116 ft 474 kts 338°
2026-05-09 06:20 35.10019 31.18290 36114 ft 474 kts 338°
2026-05-09 06:20 35.16327 31.15913 36115 ft 474 kts 338°
2026-05-09 06:21 35.22628 31.13534 36110 ft 474 kts 338°
2026-05-09 06:21 35.28934 31.11150 36113 ft 474 kts 338°
2026-05-09 06:22 35.35244 31.08761 36103 ft 474 kts 338°
2026-05-09 06:22 35.41544 31.06371 36106 ft 474 kts 338°
2026-05-09 06:23 35.47811 31.03990 36112 ft 474 kts 338°
2026-05-09 06:23 35.54112 31.01592 36105 ft 474 kts 338°
2026-05-09 06:24 35.60415 30.99190 36110 ft 474 kts 338°
2026-05-09 06:24 35.66716 30.96784 36107 ft 474 kts 338°
2026-05-09 06:25 35.73017 30.94374 36105 ft 474 kts 338°
2026-05-09 06:25 35.79323 30.91959 36106 ft 474 kts 338°
2026-05-09 06:26 35.85622 30.89541 36104 ft 474 kts 338°
2026-05-09 06:26 35.91918 30.87122 36106 ft 474 kts 338°
2026-05-09 06:27 35.98222 30.84695 36105 ft 474 kts 338°
2026-05-09 06:27 36.04589 30.82491 36104 ft 480 kts 347°
2026-05-09 06:28 36.11295 30.82173 36106 ft 487 kts 354°
2026-05-09 06:28 36.18071 30.82013 36105 ft 485 kts 352°
2026-05-09 06:29 36.24817 30.81725 36095 ft 486 kts 353°
2026-05-09 06:29 36.31579 30.81549 36102 ft 486 kts 352°
2026-05-09 06:30 36.38343 30.81288 36104 ft 486 kts 353°
2026-05-09 06:30 36.45108 30.81083 36100 ft 486 kts 352°
2026-05-09 06:31 36.51853 30.80834 36101 ft 485 kts 352°
2026-05-09 06:31 36.58560 30.80612 36103 ft 485 kts 353°
2026-05-09 06:32 36.65308 30.80375 36109 ft 485 kts 352°
2026-05-09 06:33 36.75431 30.80027 36110 ft 485 kts 352°
2026-05-09 06:33 36.82172 30.79791 36112 ft 485 kts 352°
2026-05-09 06:34 36.92280 30.79420 36107 ft 483 kts 350°
2026-05-09 06:34 36.98937 30.78592 36114 ft 480 kts 348°
2026-05-09 06:35 37.05555 30.77776 36112 ft 481 kts 348°
2026-05-09 06:35 37.12217 30.76947 36121 ft 480 kts 348°
2026-05-09 06:36 37.18873 30.76115 36127 ft 481 kts 348°
2026-05-09 06:36 37.25530 30.75286 36137 ft 481 kts 348°
2026-05-09 06:37 37.32185 30.74452 36146 ft 480 kts 348°
2026-05-09 06:37 37.38853 30.73617 36147 ft 481 kts 348°
2026-05-09 06:38 37.45509 30.72741 36160 ft 481 kts 347°
2026-05-09 06:38 37.52158 30.71712 36170 ft 481 kts 347°
2026-05-09 06:39 37.58802 30.70793 36172 ft 481 kts 349°
2026-05-09 06:39 37.65445 30.69962 36184 ft 479 kts 347°
2026-05-09 06:40 37.72045 30.69126 36194 ft 480 kts 349°
2026-05-09 06:40 37.78699 30.68326 36205 ft 480 kts 348°
2026-05-09 06:41 37.85349 30.67480 36211 ft 480 kts 348°
2026-05-09 06:41 37.91988 30.66649 36212 ft 478 kts 348°
2026-05-09 06:42 37.98583 30.65617 36209 ft 478 kts 347°
2026-05-09 06:42 38.05209 30.64778 36211 ft 479 kts 349°
2026-05-09 06:43 38.11835 30.63889 36198 ft 478 kts 348°
2026-05-09 06:43 38.18451 30.63004 36201 ft 477 kts 348°
2026-05-09 06:44 38.25035 30.62136 36199 ft 475 kts 348°
2026-05-09 06:44 38.31560 30.61255 36196 ft 475 kts 348°
2026-05-09 06:45 38.38142 30.60382 36192 ft 474 kts 348°
2026-05-09 06:45 38.44710 30.59496 36184 ft 475 kts 348°
2026-05-09 06:46 38.51281 30.58617 36188 ft 475 kts 348°
2026-05-09 06:46 38.57854 30.57731 36183 ft 475 kts 348°
2026-05-09 06:47 38.64425 30.56846 36183 ft 475 kts 348°
2026-05-09 06:47 38.69881 30.56109 36179 ft 475 kts 348°
2026-05-09 06:48 38.76460 30.55220 36174 ft 475 kts 348°
2026-05-09 06:48 38.83721 30.52675 36172 ft 462 kts 329°
2026-05-09 06:49 38.88497 30.49491 36180 ft 462 kts 329°
2026-05-09 06:49 38.94273 30.45844 36170 ft 463 kts 330°
2026-05-09 06:50 39.00009 30.42159 36171 ft 463 kts 329°
2026-05-09 06:50 39.05785 30.38446 36163 ft 464 kts 330°
2026-05-09 06:51 39.11567 30.34737 36163 ft 465 kts 329°
2026-05-09 06:51 39.17354 30.30999 36164 ft 465 kts 330°
2026-05-09 06:52 39.23149 30.27267 36157 ft 466 kts 329°
2026-05-09 06:52 39.28955 30.23507 36159 ft 467 kts 330°
2026-05-09 06:53 39.34760 30.19749 36157 ft 467 kts 330°
2026-05-09 06:53 39.40579 30.15970 36155 ft 468 kts 330°
2026-05-09 06:54 39.46412 30.12212 36144 ft 470 kts 333°
2026-05-09 06:54 39.52398 30.08899 36148 ft 471 kts 333°
2026-05-09 06:55 39.58416 30.05531 36145 ft 471 kts 333°
2026-05-09 06:55 39.64453 30.02172 36139 ft 472 kts 333°
2026-05-09 06:56 39.70494 29.98789 36137 ft 473 kts 333°
2026-05-09 06:56 39.76539 29.95405 36128 ft 473 kts 333°
2026-05-09 06:57 39.82588 29.92005 36128 ft 474 kts 333°
2026-05-09 06:57 39.88644 29.88596 36109 ft 474 kts 333°
2026-05-09 06:58 39.95001 29.86144 36110 ft 482 kts 347°
2026-05-09 06:58 40.01609 29.84912 36114 ft 483 kts 347°
2026-05-09 06:59 40.08238 29.83414 36110 ft 484 kts 346°
2026-05-09 06:59 40.14887 29.82040 36105 ft 485 kts 347°
2026-05-09 07:00 40.21561 29.80602 36111 ft 485 kts 347°
2026-05-09 07:00 40.28243 29.79174 36110 ft 487 kts 347°
2026-05-09 07:01 40.35019 29.78594 35926 ft 499 kts
2026-05-09 07:01 40.38488 29.79515 35174 ft 520 kts 14°
2026-05-09 07:01 40.41893 29.81374 34436 ft 541 kts 25°
2026-05-09 07:02 40.45155 29.83981 33720 ft 553 kts 28°
2026-05-09 07:02 40.48496 29.86406 32952 ft 536 kts 20°
2026-05-09 07:02 40.51922 29.87937 32223 ft 506 kts
2026-05-09 07:02 40.55283 29.88524 31471 ft 483 kts 358°
2026-05-09 07:03 40.58603 29.88249 30750 ft 465 kts 349°
2026-05-09 07:03 40.61716 29.87618 30063 ft 452 kts 345°
2026-05-09 07:03 40.64706 29.86390 29252 ft 439 kts 333°
2026-05-09 07:03 40.66531 29.85282 28742 ft 433 kts 332°
2026-05-09 07:04 40.68965 29.83735 28072 ft 427 kts 332°
2026-05-09 07:04 40.71651 29.82136 27358 ft 421 kts 334°
2026-05-09 07:04 40.74338 29.80635 26670 ft 416 kts 334°
2026-05-09 07:04 40.76974 29.79124 26000 ft 411 kts 334°
2026-05-09 07:05 40.79566 29.77565 25349 ft 411 kts 332°
2026-05-09 07:05 40.81983 29.75538 24725 ft 414 kts 319°
2026-05-09 07:05 40.83972 29.72772 24099 ft 417 kts 306°
2026-05-09 07:05 40.85597 29.69583 23506 ft 420 kts 301°
2026-05-09 07:06 40.87110 29.66266 22861 ft 422 kts 300°
2026-05-09 07:06 40.88693 29.62990 22249 ft 423 kts 303°
2026-05-09 07:06 40.90391 29.59801 21661 ft 424 kts 304°
2026-05-09 07:06 40.92052 29.56648 21107 ft 423 kts 303°
2026-05-09 07:07 40.93581 29.53333 20550 ft 422 kts 295°
2026-05-09 07:07 40.94532 29.49678 19998 ft 421 kts 281°
2026-05-09 07:07 40.94798 29.45837 19467 ft 420 kts 269°
2026-05-09 07:07 40.94622 29.42011 18977 ft 412 kts 265°
2026-05-09 07:08 40.94361 29.38286 18493 ft 399 kts 266°
2026-05-09 07:08 40.94218 29.34673 17913 ft 388 kts 268°
2026-05-09 07:08 40.94157 29.31159 17350 ft 379 kts 268°
2026-05-09 07:08 40.94060 29.27825 16804 ft 372 kts 267°
2026-05-09 07:09 40.94097 29.24447 16317 ft 366 kts 277°
2026-05-09 07:09 40.94784 29.21230 15801 ft 362 kts 292°
2026-05-09 07:09 40.96103 29.18415 15311 ft 361 kts 308°
2026-05-09 07:09 40.97957 29.16196 14834 ft 361 kts 323°
2026-05-09 07:10 41.00211 29.14741 14430 ft 362 kts 339°
2026-05-09 07:10 41.02620 29.13804 14054 ft 359 kts 341°
2026-05-09 07:10 41.05021 29.12943 13641 ft 357 kts 345°
2026-05-09 07:10 41.07496 29.12697 13110 ft 359 kts
2026-05-09 07:11 41.09948 29.13357 12530 ft 362 kts 16°
2026-05-09 07:11 41.12292 29.14579 11997 ft 361 kts 21°
2026-05-09 07:11 41.14568 29.15945 11487 ft 358 kts 22°
2026-05-09 07:11 41.16866 29.17214 10977 ft 355 kts 19°
2026-05-09 07:12 41.19179 29.18319 10501 ft 352 kts 17°
2026-05-09 07:12 41.21449 29.19417 10025 ft 351 kts 19°
2026-05-09 07:12 41.23716 29.20592 9500 ft 349 kts 20°
2026-05-09 07:12 41.25969 29.21775 8995 ft 347 kts 20°
2026-05-09 07:13 41.28210 29.22918 8557 ft 344 kts 19°
2026-05-09 07:13 41.30403 29.24188 8086 ft 343 kts 30°
2026-05-09 07:13 41.32282 29.26127 7586 ft 343 kts 43°
2026-05-09 07:13 41.33953 29.28374 7111 ft 340 kts 46°
2026-05-09 07:14 41.35597 29.30634 6647 ft 338 kts 45°
2026-05-09 07:14 41.37343 29.32709 6289 ft 333 kts 34°
2026-05-09 07:14 41.39304 29.34211 6181 ft 319 kts 27°
2026-05-09 07:14 41.41230 29.35577 6057 ft 308 kts 28°
2026-05-09 07:15 41.43080 29.36930 5937 ft 299 kts 29°
2026-05-09 07:15 41.44854 29.38240 5766 ft 292 kts 25°
2026-05-09 07:15 41.46783 29.39091 5576 ft 286 kts 13°
2026-05-09 07:15 41.48704 29.39694 5382 ft 281 kts 12°
2026-05-09 07:16 41.50572 29.40277 5174 ft 277 kts 13°
2026-05-09 07:16 41.52427 29.40905 4938 ft 272 kts 14°
2026-05-09 07:16 41.54248 29.41430 4799 ft 261 kts
2026-05-09 07:16 41.56015 29.41436 4814 ft 250 kts 357°
2026-05-09 07:17 41.57739 29.41374 4815 ft 246 kts 357°
2026-05-09 07:17 41.59440 29.41222 4787 ft 246 kts 348°
2026-05-09 07:17 41.61040 29.40300 4787 ft 261 kts 324°
2026-05-09 07:17 41.62353 29.38533 4793 ft 276 kts 303°
2026-05-09 07:18 41.63149 29.36160 4784 ft 285 kts 283°
2026-05-09 07:18 41.63297 29.33502 4793 ft 292 kts 263°
2026-05-09 07:18 41.62793 29.30851 4805 ft 297 kts 248°
2026-05-09 07:18 41.62023 29.28272 4813 ft 302 kts 246°
2026-05-09 07:19 41.61335 29.25596 4810 ft 301 kts 252°
2026-05-09 07:19 41.60972 29.22937 4795 ft 281 kts 261°
2026-05-09 07:19 41.60797 29.20409 4790 ft 266 kts 262°
2026-05-09 07:19 41.60581 29.18019 4791 ft 253 kts 259°
2026-05-09 07:20 41.60305 29.15739 4791 ft 244 kts 258°
2026-05-09 07:20 41.60038 29.13528 4793 ft 240 kts 259°
2026-05-09 07:20 41.59789 29.11301 4792 ft 243 kts 259°
2026-05-09 07:20 41.59543 29.09078 4791 ft 246 kts 259°
2026-05-09 07:21 41.59288 29.06811 4789 ft 248 kts 259°
2026-05-09 07:21 41.59029 29.04529 4791 ft 249 kts 259°
2026-05-09 07:21 41.58769 29.02233 4792 ft 250 kts 259°
2026-05-09 07:21 41.58508 28.99929 4794 ft 251 kts 259°
2026-05-09 07:22 41.58246 28.97617 4794 ft 252 kts 259°
2026-05-09 07:22 41.58154 28.95278 4771 ft 256 kts 273°
2026-05-09 07:22 41.58699 28.93011 4780 ft 259 kts 294°
2026-05-09 07:22 41.59630 28.90944 4779 ft 261 kts 301°
2026-05-09 07:23 41.60613 28.88907 4781 ft 260 kts 299°
2026-05-09 07:23 41.61517 28.86812 4784 ft 260 kts 296°
2026-05-09 07:23 41.62385 28.84683 4782 ft 260 kts 296°
2026-05-09 07:23 41.63127 28.82487 4772 ft 259 kts 284°
2026-05-09 07:24 41.63255 28.80125 4763 ft 253 kts 262°
2026-05-09 07:24 41.62718 28.77945 4767 ft 244 kts 240°
2026-05-09 07:24 41.61619 28.76279 4769 ft 237 kts 217°
2026-05-09 07:24 41.60212 28.75235 4768 ft 234 kts 202°
2026-05-09 07:25 41.58635 28.74802 4780 ft 231 kts 189°
2026-05-09 07:25 41.57052 28.74481 4774 ft 229 kts 189°
2026-05-09 07:25 41.55481 28.74655 4776 ft 228 kts 166°
2026-05-09 07:25 41.53933 28.75092 4774 ft 226 kts 175°
2026-05-09 07:26 41.52383 28.75187 4749 ft 218 kts 181°
2026-05-09 07:26 41.50880 28.75192 4495 ft 215 kts 181°
2026-05-09 07:26 41.49384 28.75233 4207 ft 215 kts 180°
2026-05-09 07:26 41.47892 28.75254 3931 ft 216 kts 181°
2026-05-09 07:27 41.46378 28.75287 3640 ft 217 kts 180°
2026-05-09 07:27 41.44869 28.75317 3351 ft 217 kts 182°
2026-05-09 07:27 41.43366 28.75339 3058 ft 214 kts 182°
2026-05-09 07:27 41.41902 28.75367 2781 ft 208 kts 181°
2026-05-09 07:28 41.40455 28.75395 2505 ft 205 kts 181°
2026-05-09 07:28 41.39093 28.75424 2229 ft 186 kts 182°
2026-05-09 07:28 41.37876 28.75452 1996 ft 168 kts 182°
2026-05-09 07:28 41.36748 28.75469 1780 ft 157 kts 182°
2026-05-09 07:29 41.35669 28.75492 1481 ft 156 kts 182°
2026-05-09 07:29 41.34579 28.75510 1113 ft 157 kts 182°
2026-05-09 07:29 41.33500 28.75530 792 ft 153 kts 180°
2026-05-09 07:29 41.32426 28.75551 572 ft 153 kts 179°
2026-05-09 07:30 41.31400 28.75610 567 ft 140 kts 176°
2026-05-09 07:30 41.30448 28.75613 510 ft 133 kts 179°
2026-05-09 07:30 41.29542 28.75609 420 ft 129 kts 174°
2026-05-09 07:30 41.28642 28.75635 361 ft 129 kts 179°
2026-05-09 07:31 41.27850 28.75635 332 ft 94 kts 180°
2026-05-09 07:31 41.27378 28.75642 333 ft 57 kts 180°
2026-05-09 07:31 41.27093 28.75566 333 ft 32 kts 210°
2026-05-09 07:31 41.26976 28.75483 334 ft 17 kts 207°
2026-05-09 07:32 41.26901 28.75371 331 ft 17 kts 262°
2026-05-09 07:32 41.26895 28.75203 335 ft 19 kts 268°
2026-05-09 07:32 41.26837 28.75151 332 ft 9 kts 217°
2026-05-09 07:32 41.26811 28.75076 334 ft 10 kts 268°
2026-05-09 07:33 41.26811 28.75028 335 ft 0 kts 268°